[[{"header":{"parameterUnit":"m.s-1","parameterCategory":1,"la1":30.2991,"la2":30.254,"lo1":-89.0895,"lo2":-89.0444,"dy":0.0017,"dx":0.0017,"nx":28,"ny":28,"refTime":"2023-09-19T21:00:00:Z","depth":0,"parameterNumber":2,"parameterNumberName":"U-component_of_WINDS"},"data":[0,0,0,0,0,0,0,0,0,0,0,0,0,0,0,0,0,0,0,0,0,0,0,0,0,0,0,0,0,0,0,0,0,0,0,0,0,0,0,0,0,0,0,0,0,0,0,0,0,0,0,0,0,0,0,0,0,0,-6.1955,-6.1956,0,-6.2049,-6.2051,-6.2052,-6.1903,-6.1898,-6.1893,-6.1888,-6.1986,-6.1994,-6.2001,0,0,0,0,0,0,0,0,0,0,0,0,0,-6.1649,-6.1655,-6.1955,-6.1956,-6.1957,-6.2049,-6.2051,-6.2052,-6.1904,-6.1898,-6.1892,-6.1886,-6.1984,-6.1993,-6.2002,0,0,0,0,0,0,0,0,0,0,0,0,0,-6.1767,-6.1658,-6.1955,-6.1895,-6.189,-6.2049,-6.2051,-6.2052,-6.1905,-6.1898,-6.189,-6.1883,-6.1981,-6.1992,-6.2003,-6.2225,0,0,-6.2037,-6.2042,0,0,0,0,0,0,0,0,-6.176,-6.1778,-6.1902,-6.1899,-6.1894,-6.1957,-6.1978,-6.211,-6.1907,-6.19,-6.1888,-6.1879,-6.1983,-6.1993,-6.2028,-6.223,-6.2234,-6.2038,-6.2044,-6.2049,-6.2052,0,0,0,0,0,0,0,-6.1752,-6.1773,-6.1992,-6.1904,-6.19,-6.1864,-6.1872,-6.2003,-6.1983,-6.19,-6.1889,-6.1902,-6.1979,-6.2018,-6.2029,-6.2236,-6.2037,-6.2047,-6.2054,-6.2058,-6.2626,-6.2634,0,0,0,0,0,0,-6.1751,-6.1767,-6.1989,-6.1995,-6.1807,-6.1876,-6.1885,-6.1945,-6.1981,-6.198,-6.1909,-6.1895,-6.2002,-6.2016,-6.2032,-6.2296,-6.2049,-6.206,-6.2066,-6.2618,-6.2628,-6.2637,0,0,0,0,0,0,-6.1745,-6.1772,-6.1985,-6.1879,-6.1903,-6.1889,-6.1957,-6.195,-6.1988,-6.1988,-6.1984,-6.1952,-6.1997,-6.2016,-6.2179,-6.2297,-6.2065,-6.2075,-6.2608,-6.2621,-6.2633,-6.2825,0,0,0,0,0,0,-6.1737,-6.1771,-6.1855,-6.1882,-6.1909,-6.213,-6.1965,-6.1958,-6.2008,-6.1991,-6.2027,-6.2026,-6.1992,-6.2163,-6.219,-6.2308,-6.2083,-6.2597,-6.2614,-6.2629,-6.2808,-6.2843,-6.2872,0,0,0,0,0,-6.1727,-6.1905,-6.186,-6.1888,-6.2014,-6.2137,-6.2153,-6.2111,-6.2018,-6.2103,-6.2103,-6.2025,-6.228,-6.2181,-6.221,-6.2333,-6.259,-6.2609,-6.2627,-6.2794,-6.2836,-6.2872,0,0,0,0,0,0,-6.1893,-6.1908,-6.1857,-6.205,-6.2094,-6.2112,-6.2217,-6.2156,-6.2228,-6.2209,-6.2153,-6.2163,-6.2337,-6.2351,-6.224,-6.2551,-6.2419,-6.2445,-6.2536,-6.2576,-6.2607,-6.2601,-6.2093,0,0,0,0,0,-6.1952,-6.2051,-6.2058,-6.2228,-6.2252,-6.2232,-6.2284,-6.2247,-6.2291,-6.2308,-6.232,-6.2366,-6.2456,-6.2516,-6.2599,-6.2809,-6.2816,-6.2909,-6.2941,-6.2967,-6.299,-6.3104,-6.3145,-6.2699,-6.2699,-6.2699,0,0,-6.2076,-6.2096,-6.2161,-6.2262,-6.2291,-6.2396,-6.2248,-6.2364,-6.2442,-6.2326,-6.248,-6.2491,-6.2538,-6.2725,-6.2808,-6.2742,-6.3115,-6.2991,-6.3013,-6.3021,-6.3128,-6.317,-6.3207,-6.2712,-6.271,-6.2708,0,0,-6.2353,-6.2378,-6.2522,-6.2555,-6.2602,-6.2587,-6.2622,-6.265,-6.2653,-6.2806,-6.2722,-6.2814,-6.297,-6.3008,-6.3047,-6.3341,-6.3273,-6.337,-6.3538,-6.3649,-6.3685,-6.3715,-6.3821,-6.386,-6.3393,-6.3393,-6.3394,0,-6.2501,-6.2654,-6.2604,-6.2727,-6.2775,-6.2675,-6.2821,-6.2855,-6.2927,-6.2963,-6.2887,-6.3083,-6.3107,-6.3303,-6.3375,-6.341,-6.3449,-6.3366,-6.3683,-6.3714,-6.3742,-6.3842,-6.3882,-6.3405,-6.3404,-6.3402,-6.3401,0,-6.2833,-6.2941,-6.3052,-6.3124,-6.3184,-6.3318,-6.329,-6.3356,-6.3315,-6.3309,-6.3467,-6.3494,-6.3581,-6.3624,-6.3585,-6.3815,-6.3773,-6.3692,-6.3558,-6.3797,-6.389,-6.3928,-6.3421,-6.3417,-6.3414,-6.3411,0,0,-6.3218,-6.3262,-6.3303,-6.3335,-6.338,-6.3463,-6.3593,-6.3678,-6.3737,-6.379,-6.3899,-6.4034,-6.396,-6.4005,-6.3969,-6.4067,-6.43,-6.3974,-6.3974,-6.4034,-6.4557,-6.4618,-6.4663,-6.4255,-6.4262,-6.4268,-6.4553,0,-6.3496,-6.372,-6.368,-6.3898,-6.3998,-6.3905,-6.4019,-6.4059,-6.4057,-6.4142,-6.414,-6.4237,-6.4131,-6.4158,-6.425,-6.4252,-6.4404,-6.4231,-6.4356,-6.4362,-6.4348,-6.4712,-6.4776,-6.5044,-6.4589,-6.4595,-6.46,0,-6.3849,-6.3915,-6.4144,-6.4174,-6.4215,-6.4317,-6.4393,-6.4475,-6.452,-6.4511,-6.4563,-6.451,-6.464,-6.4505,-6.4685,-6.4569,-6.4618,-6.4627,-6.4636,-6.4646,-6.4495,-6.4733,-6.5129,-6.5169,-6.4657,-6.4652,-6.4648,0,-6.4108,-6.4255,-6.441,-6.4441,-6.448,-6.4554,-6.4574,-6.4611,-6.4665,-6.4732,-6.4766,-6.4848,-6.4892,-6.4957,-6.4927,-6.4831,-6.5114,-6.4976,-6.5112,-6.5113,-6.5175,-6.5172,-6.5586,-6.5207,-6.5206,-6.5206,-6.5205,0,-6.4422,-6.4566,-6.4527,-6.4624,-6.4782,-6.4735,-6.4894,-6.4903,-6.4937,-6.5034,-6.4959,-6.5052,-6.5006,-6.5097,-6.5074,-6.5228,-6.5249,-6.5246,-6.5239,-6.5254,-6.5254,-6.5285,-6.5266,-6.5216,-6.5214,-6.5212,-6.521,0,-6.4738,-6.4718,-6.4882,-6.4906,-6.4915,-6.5031,-6.5052,-6.5142,-6.5135,-6.5259,-6.5285,-6.5274,-6.5376,-6.5353,-6.5465,-6.545,-6.5644,-6.5613,-6.5629,-6.5622,-6.5759,-6.5747,-6.6208,-6.6266,-6.5849,-6.5853,-6.5857,0,-6.494,-6.5048,-6.5084,-6.5143,-6.5169,-6.5265,-6.532,-6.5279,-6.534,-6.54,-6.5484,-6.5579,-6.5653,-6.5821,-6.5824,-6.5909,-6.588,-6.6036,-6.5892,-6.5904,-6.5883,-6.5878,-6.5889,-6.6064,-6.6069,-6.6073,-6.6076,0,-6.5301,-6.5286,-6.5367,-6.5447,-6.5515,-6.5576,-6.5629,-6.5683,-6.5646,-6.5718,-6.5821,-6.5879,-6.5994,-6.609,-6.617,-6.619,-6.6129,-6.6121,-6.6157,-6.6174,-6.6179,-6.6179,-6.5707,-6.6111,-6.6107,-6.6105,-6.6103,-6.6101,-6.5566,-6.5658,-6.5698,-6.5793,-6.5829,-6.5881,-6.5968,-6.5971,-6.6057,-6.6146,-6.6117,-6.6236,-6.6279,-6.6379,-6.641,-6.6503,-6.6445,-6.6497,-6.651,-6.6524,-6.6541,-6.6164,-6.6517,-6.6516,-6.6515,-6.6515,-6.6514,0,-6.5923,-6.5945,-6.6032,-6.6109,-6.6184,-6.6119,-6.6175,-6.6242,-6.6347,-6.6393,-6.6468,-6.6588,-6.6681,-6.6692,-6.678,-6.6853,-6.6826,-6.6877,-6.6872,-6.6878,-6.6588,-6.6548,-6.6897,-6.6897,-6.6897,-6.6897,-6.6897,-6.6897,-6.6118,-6.6271,-6.6262,-6.6433,-6.6453,-6.6568,-6.6607,-6.6655,-6.6691,-6.6828,-6.6905,-6.6911,-6.6944,-6.7034,-6.7117,-6.7118,-6.7155,-6.7217,-6.7207,-6.6936,-6.6898,-6.6862,-6.6824,-6.7225,-6.7226,-6.7489,-6.7491,-6.7493]},{"header":{"parameterUnit":"m.s-1","parameterCategory":1,"la1":30.2991,"la2":30.254,"lo1":-89.0895,"lo2":-89.0444,"dy":0.0017,"dx":0.0017,"nx":28,"ny":28,"refTime":"2023-09-19T21:00:00:Z","depth":0,"parameterNumber":3,"parameterNumberName":"V-component_of_WINDS"},"data":[0,0,0,0,0,0,0,0,0,0,0,0,0,0,0,0,0,0,0,0,0,0,0,0,0,0,0,0,0,0,0,0,0,0,0,0,0,0,0,0,0,0,0,0,0,0,0,0,0,0,0,0,0,0,0,0,0,0,-1.985,-1.9849,0,-1.9694,-1.9692,-1.9691,-1.9598,-1.9598,-1.9597,-1.9597,-1.9434,-1.943,-1.9426,0,0,0,0,0,0,0,0,0,0,0,0,0,-2.0062,-2.0059,-1.9851,-1.9849,-1.9847,-1.9694,-1.9692,-1.969,-1.9598,-1.9598,-1.9597,-1.9597,-1.9435,-1.943,-1.9425,0,0,0,0,0,0,0,0,0,0,0,0,0,-1.9945,-2.0058,-1.9851,-1.9782,-1.9775,-1.9695,-1.9692,-1.969,-1.9598,-1.9598,-1.9597,-1.9596,-1.9436,-1.9431,-1.9425,-1.94,0,0,-1.9407,-1.9404,0,0,0,0,0,0,0,0,-1.9951,-1.9937,-1.9794,-1.9787,-1.9778,-1.9665,-1.9707,-1.9592,-1.9598,-1.9665,-1.9597,-1.9596,-1.9511,-1.9499,-1.9471,-1.9392,-1.9385,-1.9406,-1.9402,-1.94,-1.9398,0,0,0,0,0,0,0,-1.996,-1.9943,-1.9788,-1.9792,-1.9782,-1.9757,-1.974,-1.9685,-1.9593,-1.9659,-1.9652,-1.9635,-1.9506,-1.9477,-1.9466,-1.9383,-1.9406,-1.9401,-1.9397,-1.9395,-1.9271,-1.9271,0,0,0,0,0,0,-1.9979,-1.995,-1.9793,-1.9784,-1.9865,-1.9754,-1.9734,-1.9702,-1.9594,-1.9576,-1.9636,-1.9631,-1.9487,-1.9473,-1.946,-1.942,-1.94,-1.9394,-1.9391,-1.927,-1.9271,-1.9271,0,0,0,0,0,0,-1.9984,-1.9966,-1.98,-1.9865,-1.9842,-1.9751,-1.9715,-1.9699,-1.9669,-1.9576,-1.9558,-1.9623,-1.9486,-1.9468,-1.9415,-1.9414,-1.9392,-1.9386,-1.927,-1.927,-1.9271,-1.9344,0,0,0,0,0,0,-1.9991,-1.9969,-1.996,-1.9866,-1.9839,-1.9759,-1.9715,-1.9696,-1.966,-1.9653,-1.9559,-1.9543,-1.9484,-1.9424,-1.9409,-1.9405,-1.9382,-1.927,-1.927,-1.9271,-1.9341,-1.9347,-1.9351,0,0,0,0,0,-1.9999,-1.9988,-1.996,-1.9942,-1.9827,-1.976,-1.9744,-1.9678,-1.966,-1.9649,-1.9588,-1.9546,-1.9416,-1.9419,-1.9401,-1.9396,-1.9269,-1.927,-1.9271,-1.9339,-1.9346,-1.9351,0,0,0,0,0,0,-2.0085,-1.9974,-1.9943,-1.9901,-1.984,-1.9744,-1.9729,-1.9688,-1.963,-1.9626,-1.9545,-1.9524,-1.9477,-1.9431,-1.9436,-1.9363,-1.9338,-1.9335,-1.9396,-1.9401,-1.9407,-1.9418,-1.9377,0,0,0,0,0,-2.0099,-2.0055,-1.996,-1.9932,-1.9903,-1.9822,-1.979,-1.9744,-1.9677,-1.9651,-1.9586,-1.9522,-1.9466,-1.9431,-1.9375,-1.9333,-1.931,-1.932,-1.9326,-1.933,-1.9329,-1.9299,-1.9301,-1.9273,-1.9273,-1.9273,0,0,-2.0128,-2.0062,-2.0039,-1.9948,-1.9895,-1.9849,-1.9801,-1.9755,-1.9719,-1.9643,-1.9588,-1.9538,-1.946,-1.9412,-1.9387,-1.9372,-1.9331,-1.9331,-1.9336,-1.9331,-1.93,-1.9302,-1.9305,-1.9273,-1.9273,-1.9273,0,0,-2.0156,-2.0103,-2.0072,-2.002,-1.9941,-1.9886,-1.9878,-1.9787,-1.9751,-1.9694,-1.9635,-1.959,-1.9497,-1.9442,-1.9403,-1.9405,-1.9363,-1.9389,-1.9416,-1.9388,-1.939,-1.9392,-1.939,-1.939,-1.9388,-1.9388,-1.9388,0,-2.0201,-2.0132,-2.0061,-2.0018,-1.9978,-1.9906,-1.9872,-1.9825,-1.9731,-1.9704,-1.9688,-1.9566,-1.9509,-1.9445,-1.9445,-1.9416,-1.9402,-1.94,-1.9396,-1.9397,-1.9397,-1.9394,-1.9394,-1.9391,-1.9391,-1.9391,-1.939,0,-2.0189,-2.0142,-2.0126,-2.0037,-1.9994,-1.9956,-1.9877,-1.9843,-1.9799,-1.9744,-1.9685,-1.9613,-1.9539,-1.9521,-1.9478,-1.9448,-1.9441,-1.9412,-1.9384,-1.9405,-1.94,-1.9399,-1.9397,-1.9395,-1.9394,-1.9393,0,0,-2.027,-2.014,-2.0135,-2.0092,-1.9997,-1.9958,-1.9914,-1.9842,-1.9812,-1.9749,-1.9708,-1.9628,-1.9599,-1.9554,-1.9504,-1.948,-1.9482,-1.9452,-1.9449,-1.9458,-1.9441,-1.9463,-1.9463,-1.9453,-1.9452,-1.9452,-1.9446,0,-2.0283,-2.0203,-2.0137,-2.008,-2.0033,-1.9962,-1.9923,-1.9859,-1.9806,-1.9756,-1.9696,-1.964,-1.9608,-1.9579,-1.9552,-1.9488,-1.9477,-1.9487,-1.9411,-1.941,-1.9433,-1.9461,-1.9485,-1.9483,-1.9444,-1.9444,-1.9444,0,-2.0289,-2.0227,-2.0166,-2.0072,-2.005,-2.0017,-1.9943,-1.9897,-1.9821,-1.9784,-1.9732,-1.9678,-1.9625,-1.9603,-1.9527,-1.9535,-1.95,-1.9463,-1.9461,-1.9451,-1.9428,-1.945,-1.9481,-1.9481,-1.9441,-1.9441,-1.9442,0,-2.035,-2.0252,-2.0202,-2.0167,-2.0058,-2.0035,-1.9988,-1.9912,-1.9871,-1.9806,-1.9778,-1.9707,-1.9668,-1.9613,-1.9541,-1.9532,-1.9471,-1.9443,-1.9436,-1.9438,-1.9427,-1.9428,-1.9452,-1.9406,-1.9406,-1.9406,-1.9406,0,-2.0371,-2.0336,-2.0228,-2.0197,-2.0154,-2.0076,-2.0034,-1.9981,-1.9913,-1.9868,-1.9802,-1.976,-1.9668,-1.9615,-1.9558,-1.9501,-1.9485,-1.9451,-1.9436,-1.9456,-1.946,-1.9431,-1.9429,-1.9406,-1.9406,-1.9406,-1.9406,0,-2.0433,-2.036,-2.0299,-2.0199,-2.0173,-2.0146,-2.0058,-2.0024,-1.9966,-1.9909,-1.9891,-1.98,-1.9733,-1.9655,-1.9564,-1.9525,-1.9472,-1.9451,-1.9498,-1.9489,-1.9485,-1.9486,-1.949,-1.9485,-1.9446,-1.9446,-1.9446,0,-2.0451,-2.0422,-2.0318,-2.0283,-2.0238,-2.0183,-2.0141,-2.0061,-2.0019,-1.9928,-1.9904,-1.9832,-1.9771,-1.9667,-1.959,-1.9518,-1.9494,-1.95,-1.9483,-1.9502,-1.9491,-1.9493,-1.9488,-1.9505,-1.9506,-1.9506,-1.9507,0,-2.0489,-2.0453,-2.0395,-2.0324,-2.0275,-2.0215,-2.0151,-2.0126,-2.0033,-1.9989,-1.992,-1.9872,-1.9777,-1.9705,-1.9623,-1.9571,-1.9522,-1.9513,-1.9507,-1.9527,-1.9554,-1.9537,-1.9509,-1.9513,-1.9512,-1.9512,-1.9512,-1.9511,-2.0527,-2.0496,-2.0418,-2.0354,-2.0298,-2.024,-2.0201,-2.0137,-2.0079,-1.9996,-1.9951,-1.9882,-1.9802,-1.9687,-1.9636,-1.9579,-1.9563,-1.9555,-1.9553,-1.9552,-1.9556,-1.9564,-1.9564,-1.9564,-1.9563,-1.9563,-1.9563,0,-2.0559,-2.0505,-2.0447,-2.036,-2.0309,-2.0269,-2.0195,-2.0155,-2.0095,-2.0025,-1.9965,-1.9884,-1.9813,-1.973,-1.9653,-1.9622,-1.9598,-1.9605,-1.9605,-1.9593,-1.9576,-1.9588,-1.9626,-1.9626,-1.9626,-1.9626,-1.9626,-1.9626,-2.057,-2.0515,-2.047,-2.0384,-2.0329,-2.0261,-2.0223,-2.0167,-2.011,-2.0022,-1.9963,-1.991,-1.9833,-1.9749,-1.9681,-1.9658,-1.9631,-1.9645,-1.9615,-1.9601,-1.9595,-1.959,-1.9601,-1.964,-1.964,-1.9636,-1.9636,-1.9636]}]]